Tracking 19908 objects as of 19-Oct-2019
HD Live streaming from Space Station
objects crossing your sky now

FLOCK 2K 21

Track FLOCK 2K 21 now!
10-day predictions
FLOCK 2K 21 is classified as:


NORAD ID: 42860
Int'l Code: 2017-042AM
Perigee: 446.9 km
Apogee: 461.5 km
Inclination: 96.9 °
Period: 93.5 minutes
Semi major axis: 6825 km
RCS: Unknown
Launch date: July 14, 2017
Source: United States (US)
Launch site: TYURATAM MISSILE AND SPACE COMPLEX (TTMTR)
aabbcc
Your satellite tracking list
Your tracking list is empty




NASA's NSSDC Master Catalog

Two Line Element Set (TLE):
1 42860U 17042AM  19291.88926647 +.00003110 +00000-0 +80595-4 0  9992
2 42860 096.9215 168.0603 0010677 130.1685 230.0499 15.39674792126765
Source of the keplerian elements: AFSPC